| Temperature (°F) | Max | Average | Min |
|---|---|---|---|
| Max Temperature | 92 | 85 | 79 |
| Avg Temperature | 83.83 | 78.34 | 72.57 |
| Min Temperature | 78 | 72.87 | 64 |
| Precipitation (in) | Max | Average | Min | Sum |
|---|---|---|---|---|
| Precipitation | 1.91 | 0.19 | 0 | 5.84 |
| Dew Point (°F) | Max | Average | Min |
|---|---|---|---|
| Dew Point | 76.13 | 71.33 | 60.13 |
| Wind (mph) | Max | Average | Min |
|---|---|---|---|
| Wind | 22 | 15.65 | 9 |
| Gust Wind | 46 | 25.43 | 17 |
| Sea Level Pressure (in) | Max | Average | Min |
|---|---|---|---|
| Sea Level Pressure | 30.15 | 29.97 | 29.79 |
| Date | Temp High/Low | Dew Pt High/Low | Humidity | Wind | Max Wind | Wind Gust | Pressure | Precip. | Condition |
|---|---|---|---|---|---|---|---|---|---|
| 8/1/2026 | 84 °F / 70 °F | 74 °F / 69 °F | 81 % | 15 mph | - | 29.93 in | 0 in | ||
| 8/2/2026 | 85 °F / 76 °F | 78 °F / 72 °F | 86 % | 21 mph | - | 29.84 in | 0 in | ||
| 8/3/2026 | 84 °F / 77 °F | 76 °F / 74 °F | 86 % | 20 mph | - | 29.81 in | 0 in | ||
| 8/4/2026 | 81 °F / 73 °F | 76 °F / 70 °F | 90 % | 17 mph | - | 30 in | 0 in | ||
| 8/5/2026 | 84 °F / 75 °F | 78 °F / 73 °F | 91 % | 17 mph | - | 30.08 in | 0.8 in | ||
| 8/6/2026 | 85 °F / 77 °F | 77 °F / 74 °F | 84 % | 22 mph | - | 30.12 in | 0 in | ||
| 8/7/2026 | 89 °F / 76 °F | 76 °F / 69 °F | 78 % | 21 mph | - | 30.1 in | 0 in | ||
| 8/8/2026 | 90 °F / 78 °F | 77 °F / 74 °F | 77 % | 15 mph | - | 30.02 in | 0 in | ||
| 8/9/2026 | 91 °F / 78 °F | 76 °F / 70 °F | 73 % | 9 mph | - | 29.98 in | 0 in | ||
| 8/10/2026 | 92 °F / 71 °F | 78 °F / 67 °F | 81 % | 22 mph | - | 29.97 in | 0.32 in | ||
| 8/11/2026 | 87 °F / 74 °F | 73 °F / 66 °F | 77 % | 10 mph | - | 29.89 in | 0 in | ||
| 8/12/2026 | 84 °F / 73 °F | 73 °F / 62 °F | 78 % | 10 mph | - | 29.82 in | 0 in | ||
| 8/13/2026 | 88 °F / 74 °F | 75 °F / 68 °F | 75 % | 12 mph | - | 29.87 in | 0 in | ||
| 8/14/2026 | 85 °F / 75 °F | 79 °F / 69 °F | 84 % | 15 mph | - | 29.98 in | 1.91 in | ||
| 8/15/2026 | 83 °F / 74 °F | 75 °F / 70 °F | 84 % | 14 mph | - | 30.07 in | 0 in | ||
| 8/16/2026 | 82 °F / 74 °F | 74 °F / 65 °F | 75 % | 18 mph | - | 30.01 in | 0.01 in | ||
| 8/17/2026 | 89 °F / 75 °F | 75 °F / 72 °F | 80 % | 22 mph | - | 29.82 in | 0.97 in | ||
| 8/18/2026 | 87 °F / 74 °F | 76 °F / 73 °F | 86 % | 7 mph | - | 29.83 in | 0.25 in | ||
| 8/19/2026 | 88 °F / 74 °F | 75 °F / 59 °F | 69 % | 15 mph | - | 29.89 in | 0 in | ||
| 8/20/2026 | 86 °F / 73 °F | 78 °F / 68 °F | 84 % | 22 mph | - | 29.92 in | 0.51 in | ||
| 8/21/2026 | 79 °F / 66 °F | 72 °F / 64 °F | 83 % | 12 mph | - | 30.01 in | 0 in | ||
| 8/22/2026 | 79 °F / 72 °F | 73 °F / 67 °F | 86 % | 14 mph | - | 29.93 in | 0.35 in | ||
| 8/23/2026 | 84 °F / 66 °F | 70 °F / 61 °F | 76 % | 10 mph | - | 29.84 in | 0.25 in | ||
| 8/24/2026 | 85 °F / 70 °F | 71 °F / 51 °F | 70 % | 12 mph | - | 29.92 in | 0 in | ||
| 8/25/2026 | 81 °F / 66 °F | 62 °F / 56 °F | 62 % | 10 mph | - | 30.01 in | 0 in | ||
| 8/26/2026 | 83 °F / 64 °F | 66 °F / 61 °F | 70 % | 14 mph | - | 30.05 in | 0 in | ||
| 8/27/2026 | 84 °F / 75 °F | 75 °F / 67 °F | 83 % | 12 mph | - | 29.97 in | 0 in | ||
| 8/28/2026 | 86 °F / 72 °F | 76 °F / 67 °F | 84 % | 15 mph | - | 29.97 in | 0.47 in | ||
| 8/29/2026 | 80 °F / 70 °F | 71 °F / 65 °F | 82 % | 16 mph | - | 30.15 in | 0 in | ||
| 8/30/2026 | 83 °F / 65 °F | 74 °F / 65 °F | 84 % | 14 mph | - | 30.14 in | 0 in | ||
| 8/31/2026 | 85 °F / 75 °F | 76 °F / 73 °F | 87 % | 7 mph | - | 30.05 in | 0 in |